Starlink 31975

operational
NORAD ID: 59886 Int'l Des: 2024-100 Owner: SPXS Country: US Constellation: starlink
LEOCIRCULAR

About Starlink 31975

Description loading...

Live Position

Loading 3D Globe...

Upcoming Passes

Altitude History

Altitude vs Time

uPlot chart will show altitude changes over time

Two-Line Element Set

1 59886U 24100B 25260.06992469 -.00001236 00000-0 -35389-4 0 9999
2 59886 43.0029 25.9407 0000792 287.2395 72.8370 15.27584008 74601
Epoch: Sep 17, 2025 • Age: 23 hours

Current Status

Altitude 491.5 km
Velocity 7.62 km/s
Sub-Earth Point -32.53°S, 34.47°W
Launch Date May 28, 2024
Age 1.3 years
Type internet

Technical Details

Classification Payload
Mass 730.00 kg
Dry Mass 700.00 kg
Total Mass 730.00 kg
Length 0.30 m
Diameter 4.10 m
Span 29.00 m
Shape Box + pan
Manufacturer SPXS
Bus Type Starlink V2M
Phase Status In Orbit
Owner/State SPXS/US

Large Constellations

Loading constellations...